Location: Sungai Juaw
(2.6833°N, 113.5333°E)
Time: 23:09:32
(UTC+00:00)

Atlas Centaur 2 - Pass Details

Date: 04 August 2024
Orbit: 457 x 1271 km, 30.4° (Epoch: 19 September)

Event Time Altitude Azimuth Distance (km) Brightness Sun altitude
Exits shadow 20:20:48 56° 308° (NW) 1,450 3.1 -30.2°
Maximum altitude 20:22:51 87° 31° (NNE) 1,263 2.9 -29.8°
Drops below altitude 10° 20:31:13 10° 121° (ESE) 3,231 5.6 -27.8°
Sets 20:34:05 0° 122° (ESE) 4,158 6.3 -27.2°
